Aeroporto :
LOGIN :

Iscrizione | Disclaimer

   EN    FR    IT 

 










Sommario :    VFR   VFR Marginale   IFR   IFR Intensivo   IFR Molto Intensivo
Visibilità : 
Base nubi : 
>= 8 km
>= 3000ft
5 / 8 km
1000 / 3000 ft
1500m / 5 km
500 / 1000 ft
800 / 1500m
200 / 500 ft
< 800m
< 200 ft
Simboli :   Temporali  Nebbia  Neve Forte  Precipitazioni Forti  Vento > 20 kt
SIGMETs :   Varie  Temporali  Ghiacco  Turbolenza  Onda orograficha  Ceneri Vulcaniche






- Altitudine del aeroporto : 44 ft
- Codice IATA : SOU


EGHI - Southampton

ULTIMO METAR :
  • 300650Z 00000KT 0700 R20/0750 FG BKN002 04/03 Q1027

METARs OBSOLETI :
  • 300620Z 00000KT 0300 R02/1000 FG BKN002 04/03 Q1027

TAF TAF EGHI
Valido dal 30 a 06 ore il 30 a 15 ore UTC


300653Z 3006/3015 27003KT 0300 FG BKN001
BECMG 3006/3008 3000 BR BKN004
BECMG 3008/3011 9999 NSW SCT008
TEMPO 3011/3015 8000 BKN008
ATIS : +44 23 8062 7103



MetMap, La meteo Aeronautica in un colpo d'occhio ! - Copyright ORBIFLY Dicembre 2007 - Disclaimer

ORBIFLY MET'MAP TEAM :

Programmazione e sviluppo : Alexandra Zaïnal
Concezione : Baudouin d'Aumeries
Aiuto per la programmazione : Marc-Olivier Méhu
Supporto tecnico e logistico : Manuel Goepfert
Aiuto per la traduzione : Arnaldo La Scala

Contatto : metmap@orbifly.com




FONTI E CREDITI :

   NOAA